TimePDT,TemperatureF,Dew PointF,Humidity,Sea Level PressureIn,VisibilityMPH,Wind Direction,Wind SpeedMPH,Gust SpeedMPH,PrecipitationIn,Events,Conditions,WindDirDegrees,DateUTC
12:43 AM,52.0,51.1,97,30.00,7.0,NW,4.6,-,N/A,,Scattered Clouds,310,2013-08-05 07:43:00
12:48 AM,51.8,51.8,100,30.00,6.0,WNW,4.6,-,N/A,,Mostly Cloudy,290,2013-08-05 07:48:00
12:53 AM,52.0,51.1,97,30.00,3.0,WNW,4.6,-,N/A,,Mostly Cloudy,300,2013-08-05 07:53:00
12:57 AM,52.0,51.1,97,30.00,1.8,WNW,4.6,-,N/A,,Mostly Cloudy,300,2013-08-05 07:57:00
1:04 AM,52.0,51.1,97,30.00,0.8,WNW,4.6,-,N/A,,Mist,300,2013-08-05 08:04:00
1:53 AM,52.0,51.1,97,29.99,0.8,WNW,5.8,-,N/A,,Mist,290,2013-08-05 08:53:00
2:04 AM,52.0,51.1,97,29.99,1.5,WNW,4.6,-,N/A,,Overcast,290,2013-08-05 09:04:00
2:53 AM,52.0,51.1,97,29.99,0.5,WNW,3.5,-,N/A,Fog,Fog,290,2013-08-05 09:53:00
3:12 AM,52.0,51.1,97,30.00,0.2,WNW,3.5,-,N/A,Fog,Fog,300,2013-08-05 10:12:00
3:53 AM,52.0,51.1,97,30.00,0.5,West,3.5,-,N/A,Fog,Fog,280,2013-08-05 10:53:00
4:53 AM,52.0,51.1,97,30.00,0.5,West,4.6,-,N/A,Fog,Fog,280,2013-08-05 11:53:00
5:33 AM,51.1,50.0,96,30.01,0.2,WNW,6.9,-,N/A,Fog,Fog,290,2013-08-05 12:33:00
5:50 AM,51.8,50.0,94,30.01,0.5,West,5.8,-,N/A,Fog,Fog,280,2013-08-05 12:50:00
5:53 AM,51.1,50.0,96,30.01,0.5,West,4.6,-,N/A,Fog,Fog,280,2013-08-05 12:53:00
6:08 AM,51.1,50.0,96,30.01,0.2,West,5.8,-,N/A,Fog,Fog,280,2013-08-05 13:08:00
6:53 AM,51.1,50.0,96,30.02,0.2,WNW,5.8,-,N/A,Fog,Fog,300,2013-08-05 13:53:00
7:46 AM,51.1,51.1,100,30.02,0.2,WNW,4.6,-,N/A,Fog,Fog,290,2013-08-05 14:46:00
7:53 AM,52.0,51.1,97,30.03,0.2,West,4.6,-,N/A,Fog,Fog,280,2013-08-05 14:53:00
8:02 AM,52.0,51.1,97,30.03,0.8,West,4.6,-,N/A,,Mist,270,2013-08-05 15:02:00
8:08 AM,52.0,51.1,97,30.03,1.0,NNW,3.5,-,N/A,,Overcast,330,2013-08-05 15:08:00
8:10 AM,52.0,51.1,97,30.03,0.8,Calm,Calm,-,N/A,,Overcast,0,2013-08-05 15:10:00
8:18 AM,52.0,52.0,100,30.03,1.2,Calm,Calm,-,N/A,,Overcast,0,2013-08-05 15:18:00
8:25 AM,53.1,52.0,96,30.03,3.0,Calm,Calm,-,N/A,,Overcast,0,2013-08-05 15:25:00
8:38 AM,53.1,53.1,100,30.03,9.0,Calm,Calm,-,N/A,,Overcast,0,2013-08-05 15:38:00
8:53 AM,55.0,52.0,89,30.03,10.0,NNW,3.5,-,N/A,,Mostly Cloudy,340,2013-08-05 15:53:00
9:06 AM,55.0,52.0,89,30.03,10.0,North,4.6,-,N/A,,Scattered Clouds,350,2013-08-05 16:06:00
9:53 AM,59.0,53.1,81,30.04,10.0,NNW,5.8,-,N/A,,Clear,340,2013-08-05 16:53:00
10:53 AM,60.1,52.0,75,30.04,10.0,North,5.8,-,N/A,,Clear,360,2013-08-05 17:53:00
11:53 AM,62.1,52.0,70,30.04,10.0,NW,5.8,-,N/A,,Clear,320,2013-08-05 18:53:00
12:53 PM,61.0,51.1,70,30.04,10.0,WNW,12.7,-,N/A,,Clear,300,2013-08-05 19:53:00
1:53 PM,64.9,52.0,63,30.03,10.0,NW,6.9,-,N/A,,Clear,320,2013-08-05 20:53:00
2:53 PM,63.0,51.1,65,30.02,10.0,NW,6.9,-,N/A,,Clear,320,2013-08-05 21:53:00
3:53 PM,64.9,51.1,61,30.01,10.0,WNW,6.9,-,N/A,,Clear,300,2013-08-05 22:53:00
4:53 PM,64.0,52.0,65,29.99,10.0,NW,6.9,-,N/A,,Clear,310,2013-08-05 23:53:00
5:53 PM,63.0,52.0,67,29.98,10.0,WNW,6.9,-,N/A,,Clear,300,2013-08-06 00:53:00
6:53 PM,63.0,53.1,70,29.97,10.0,NW,5.8,-,N/A,,Clear,310,2013-08-06 01:53:00
7:53 PM,57.9,52.0,81,29.97,10.0,NW,5.8,-,N/A,,Clear,310,2013-08-06 02:53:00
8:53 PM,54.0,51.1,90,29.97,10.0,NW,3.5,-,N/A,,Clear,320,2013-08-06 03:53:00
9:46 PM,52.0,50.0,93,29.98,10.0,WNW,6.9,-,N/A,,Scattered Clouds,290,2013-08-06 04:46:00
9:53 PM,52.0,50.0,93,29.98,10.0,WNW,6.9,-,N/A,,Scattered Clouds,290,2013-08-06 04:53:00
10:53 PM,52.0,50.0,93,29.98,10.0,West,8.1,-,N/A,,Clear,280,2013-08-06 05:53:00
11:15 PM,51.1,50.0,96,29.98,10.0,WNW,9.2,-,N/A,,Scattered Clouds,300,2013-08-06 06:15:00
11:28 PM,51.1,50.0,96,29.98,6.0,WNW,6.9,-,N/A,,Mostly Cloudy,290,2013-08-06 06:28:00
11:53 PM,51.1,50.0,96,29.98,2.5,West,8.1,-,N/A,,Overcast,280,2013-08-06 06:53:00